[[{"header":{"parameterUnit":"m.s-1","parameterCategory":1,"la1":30.2991,"la2":30.254,"lo1":-89.0895,"lo2":-89.0444,"dy":0.0017,"dx":0.0017,"nx":28,"ny":28,"refTime":"2023-09-28T09:00:00:Z","depth":0,"parameterNumber":2,"parameterNumberName":"U-component_of_WINDS"},"data":[0,0,0,0,0,0,0,0,0,0,0,0,0,0,0,0,0,0,0,0,0,0,0,0,0,0,0,0,0,0,0,0,0,0,0,0,0,0,0,0,0,0,0,0,0,0,0,0,0,0,0,0,0,0,0,0,0,0,-5.5811,-5.5811,0,-5.5832,-5.5832,-5.5833,-5.5686,-5.5682,-5.5678,-5.5674,-5.5694,-5.5698,-5.5702,0,0,0,0,0,0,0,0,0,0,0,0,0,-5.564,-5.5644,-5.5811,-5.5811,-5.5811,-5.5832,-5.5832,-5.5833,-5.5687,-5.5682,-5.5677,-5.5672,-5.5692,-5.5698,-5.5703,0,0,0,0,0,0,0,0,0,0,0,0,0,-5.5693,-5.5646,-5.5811,-5.5741,-5.5735,-5.5832,-5.5832,-5.5833,-5.5688,-5.5682,-5.5675,-5.567,-5.5691,-5.5697,-5.5704,-5.5868,0,0,-5.5724,-5.5726,0,0,0,0,0,0,0,0,-5.5691,-5.57,-5.5751,-5.5746,-5.5739,-5.575,-5.578,-5.5845,-5.5689,-5.5706,-5.5674,-5.5667,-5.5717,-5.5721,-5.5739,-5.5869,-5.587,-5.5724,-5.5728,-5.5731,-5.5733,0,0,0,0,0,0,0,-5.5687,-5.5698,-5.5819,-5.5752,-5.5745,-5.5708,-5.5708,-5.5791,-5.5746,-5.5704,-5.5693,-5.5698,-5.5713,-5.5733,-5.5738,-5.587,-5.5724,-5.573,-5.5734,-5.5736,-5.6135,-5.6141,0,0,0,0,0,0,-5.5693,-5.5696,-5.5818,-5.582,-5.5699,-5.5716,-5.5717,-5.5753,-5.5745,-5.5737,-5.5703,-5.5691,-5.5725,-5.5731,-5.5739,-5.5929,-5.5731,-5.5737,-5.5741,-5.6128,-5.6136,-5.6143,0,0,0,0,0,0,-5.569,-5.5705,-5.5817,-5.5755,-5.5766,-5.5725,-5.5767,-5.5757,-5.5776,-5.5744,-5.5735,-5.5732,-5.572,-5.5729,-5.5837,-5.5928,-5.574,-5.5746,-5.612,-5.6131,-5.614,-5.6313,0,0,0,0,0,0,-5.5686,-5.5705,-5.5768,-5.5758,-5.577,-5.5917,-5.5773,-5.5761,-5.5788,-5.5773,-5.5769,-5.5762,-5.5716,-5.5828,-5.5843,-5.5933,-5.5751,-5.6112,-5.6125,-5.6137,-5.6299,-5.6327,-5.6352,0,0,0,0,0,-5.568,-5.5815,-5.5772,-5.5787,-5.5848,-5.5922,-5.5929,-5.5874,-5.5796,-5.5858,-5.5838,-5.5762,-5.5916,-5.584,-5.5856,-5.595,-5.6106,-5.6121,-5.6136,-5.6287,-5.6322,-5.6351,0,0,0,0,0,0,-5.5837,-5.5813,-5.5764,-5.59,-5.5915,-5.5897,-5.5973,-5.5913,-5.5949,-5.5932,-5.5862,-5.5862,-5.5981,-5.5976,-5.5892,-5.6108,-5.5997,-5.6016,-5.6106,-5.6139,-5.6166,-5.6163,-5.5757,0,0,0,0,0,-5.5887,-5.595,-5.5926,-5.6048,-5.6058,-5.6015,-5.6045,-5.6002,-5.6013,-5.6018,-5.6005,-5.6019,-5.6069,-5.6104,-5.615,-5.6298,-5.6294,-5.637,-5.6397,-5.6419,-5.6436,-5.6512,-5.6545,-5.6192,-5.6192,-5.6192,0,0,-5.5992,-5.5986,-5.603,-5.6079,-5.6085,-5.6151,-5.6021,-5.6096,-5.6144,-5.6029,-5.6129,-5.6121,-5.6131,-5.626,-5.6316,-5.6259,-5.6533,-5.6438,-5.6456,-5.646,-5.6531,-5.6565,-5.6594,-5.6203,-5.6201,-5.6199,0,0,-5.6215,-5.6219,-5.632,-5.6329,-5.634,-5.6311,-5.6336,-5.6328,-5.6318,-5.6418,-5.6333,-5.6388,-5.6478,-5.6489,-5.6506,-5.6735,-5.6666,-5.6752,-5.689,-5.6966,-5.6993,-5.7018,-5.7098,-5.7127,-5.6769,-5.6769,-5.6769,0,-5.6343,-5.644,-5.638,-5.6461,-5.6484,-5.6385,-5.6487,-5.6498,-5.6523,-5.6541,-5.6478,-5.6588,-5.6588,-5.6717,-5.6773,-5.6791,-5.6816,-5.675,-5.6994,-5.7018,-5.704,-5.7115,-5.7146,-5.6779,-5.6778,-5.6777,-5.6776,0,-5.6596,-5.6664,-5.6745,-5.6772,-5.6805,-5.6896,-5.6849,-5.689,-5.6844,-5.6821,-5.6924,-5.6921,-5.6963,-5.6991,-5.6947,-5.7114,-5.7079,-5.7007,-5.6893,-5.7085,-5.7154,-5.7183,-5.6794,-5.679,-5.6787,-5.6785,0,0,-5.6916,-5.691,-5.6941,-5.6952,-5.6957,-5.7008,-5.7095,-5.7137,-5.7172,-5.7193,-5.7263,-5.7342,-5.7275,-5.7295,-5.7251,-5.7318,-5.7498,-5.7237,-5.7236,-5.7284,-5.768,-5.7733,-5.7767,-5.7453,-5.7459,-5.7463,-5.7678,0,-5.7133,-5.7281,-5.723,-5.738,-5.7441,-5.7348,-5.7423,-5.7435,-5.7416,-5.7465,-5.7444,-5.7501,-5.7409,-5.742,-5.7483,-5.7463,-5.7576,-5.7447,-5.7516,-5.7519,-5.7514,-5.7804,-5.786,-5.8063,-5.7705,-5.771,-5.7713,0,-5.7405,-5.7438,-5.7595,-5.7589,-5.7612,-5.7681,-5.7715,-5.7764,-5.7774,-5.7756,-5.7779,-5.7721,-5.7804,-5.7694,-5.7807,-5.7721,-5.7746,-5.7741,-5.7747,-5.775,-5.7626,-5.7812,-5.8127,-5.8157,-5.7756,-5.7752,-5.7749,0,-5.7621,-5.7704,-5.7808,-5.7821,-5.7817,-5.7867,-5.7868,-5.7872,-5.7901,-5.7931,-5.7949,-5.7989,-5.801,-5.8042,-5.7996,-5.792,-5.8116,-5.8001,-5.8101,-5.8103,-5.8145,-5.8142,-5.8466,-5.8166,-5.8165,-5.8165,-5.8164,0,-5.7867,-5.7966,-5.7905,-5.7969,-5.8077,-5.8017,-5.8126,-5.8116,-5.8121,-5.818,-5.8103,-5.816,-5.8097,-5.8149,-5.8113,-5.8212,-5.8223,-5.8209,-5.8198,-5.8215,-5.8217,-5.8229,-5.8213,-5.8173,-5.8171,-5.8169,-5.8168,0,-5.8125,-5.8089,-5.8196,-5.8184,-5.8183,-5.8263,-5.8252,-5.8311,-5.8287,-5.8364,-5.8378,-5.8342,-5.8398,-5.8356,-5.8412,-5.8388,-5.8518,-5.8488,-5.8514,-5.8505,-5.8607,-5.8598,-5.8948,-5.8991,-5.8666,-5.8669,-5.8672,0,-5.8284,-5.8357,-5.8354,-5.8389,-5.8395,-5.8452,-5.8481,-5.8425,-5.8459,-5.8476,-5.8532,-5.8582,-5.8619,-5.8714,-5.8692,-5.8734,-5.8703,-5.8824,-5.8709,-5.8723,-5.8703,-5.8698,-5.8704,-5.8846,-5.885,-5.8853,-5.8855,0,-5.8568,-5.8546,-5.8591,-5.8631,-5.8667,-5.8696,-5.8717,-5.875,-5.8694,-5.8735,-5.8792,-5.8821,-5.8879,-5.8929,-5.8964,-5.8963,-5.89,-5.8892,-5.8917,-5.8934,-5.8945,-5.8938,-5.8575,-5.8884,-5.8881,-5.8879,-5.8877,-5.8876,-5.8779,-5.884,-5.8847,-5.89,-5.8911,-5.8933,-5.8987,-5.8971,-5.9018,-5.906,-5.9025,-5.9093,-5.9101,-5.9141,-5.9149,-5.9201,-5.9151,-5.9188,-5.9197,-5.9207,-5.922,-5.894,-5.9208,-5.9207,-5.9206,-5.9205,-5.9205,0,-5.9057,-5.9057,-5.9107,-5.914,-5.9181,-5.912,-5.9141,-5.9179,-5.9241,-5.9254,-5.9292,-5.9358,-5.9407,-5.9389,-5.9432,-5.9477,-5.9449,-5.949,-5.9485,-5.9486,-5.9263,-5.9236,-5.9512,-5.9512,-5.9512,-5.9512,-5.9512,-5.9512,-5.9206,-5.9306,-5.9286,-5.939,-5.9389,-5.9455,-5.9473,-5.9492,-5.9503,-5.958,-5.962,-5.9609,-5.9609,-5.9652,-5.9694,-5.9687,-5.9705,-5.9757,-5.974,-5.9532,-5.9501,-5.9472,-5.9446,-5.9762,-5.9762,-5.9957,-5.9959,-5.996]},{"header":{"parameterUnit":"m.s-1","parameterCategory":1,"la1":30.2991,"la2":30.254,"lo1":-89.0895,"lo2":-89.0444,"dy":0.0017,"dx":0.0017,"nx":28,"ny":28,"refTime":"2023-09-28T09:00:00:Z","depth":0,"parameterNumber":3,"parameterNumberName":"V-component_of_WINDS"},"data":[0,0,0,0,0,0,0,0,0,0,0,0,0,0,0,0,0,0,0,0,0,0,0,0,0,0,0,0,0,0,0,0,0,0,0,0,0,0,0,0,0,0,0,0,0,0,0,0,0,0,0,0,0,0,0,0,0,0,-1.0138,-1.0139,0,-1.0203,-1.0204,-1.0205,-1.0223,-1.0223,-1.0222,-1.0222,-1.0289,-1.0291,-1.0293,0,0,0,0,0,0,0,0,0,0,0,0,0,-1.0027,-1.0029,-1.0138,-1.0139,-1.0139,-1.0203,-1.0204,-1.0205,-1.0223,-1.0222,-1.0222,-1.0222,-1.0288,-1.0291,-1.0293,0,0,0,0,0,0,0,0,0,0,0,0,0,-1.0082,-1.003,-1.0138,-1.0156,-1.0158,-1.0203,-1.0204,-1.0205,-1.0223,-1.0222,-1.0222,-1.0221,-1.0287,-1.029,-1.0294,-1.0324,0,0,-1.0303,-1.0305,0,0,0,0,0,0,0,0,-1.0079,-1.0086,-1.0153,-1.0155,-1.0158,-1.0204,-1.019,-1.0245,-1.0223,-1.0199,-1.0222,-1.0221,-1.0261,-1.0266,-1.028,-1.0327,-1.033,-1.0304,-1.0306,-1.0307,-1.0308,0,0,0,0,0,0,0,-1.0075,-1.0083,-1.0164,-1.0154,-1.0157,-1.0161,-1.0168,-1.02,-1.0232,-1.0201,-1.0202,-1.021,-1.0262,-1.0277,-1.0282,-1.0331,-1.0303,-1.0306,-1.0308,-1.031,-1.0405,-1.0406,0,0,0,0,0,0,-1.0068,-1.008,-1.0162,-1.0166,-1.0116,-1.0163,-1.0171,-1.019,-1.0232,-1.0238,-1.021,-1.021,-1.0272,-1.0278,-1.0284,-1.0321,-1.0307,-1.031,-1.0312,-1.0404,-1.0405,-1.0406,0,0,0,0,0,0,-1.0066,-1.0075,-1.0159,-1.0123,-1.0134,-1.0166,-1.0186,-1.0191,-1.0206,-1.0239,-1.0245,-1.0219,-1.0271,-1.028,-1.0314,-1.0324,-1.0311,-1.0314,-1.0404,-1.0405,-1.0405,-1.0397,0,0,0,0,0,0,-1.0063,-1.0074,-1.0087,-1.0123,-1.0136,-1.0188,-1.0187,-1.0193,-1.0211,-1.0212,-1.0249,-1.0254,-1.0272,-1.0309,-1.0317,-1.0328,-1.0317,-1.0403,-1.0404,-1.0405,-1.0397,-1.0398,-1.0399,0,0,0,0,0,-1.0059,-1.0083,-1.0088,-1.0097,-1.0153,-1.0189,-1.0196,-1.0215,-1.0212,-1.0225,-1.0245,-1.0253,-1.0322,-1.0312,-1.0321,-1.0334,-1.0402,-1.0404,-1.0405,-1.0396,-1.0398,-1.0399,0,0,0,0,0,0,-1.0047,-1.0088,-1.0094,-1.0131,-1.0156,-1.0192,-1.0208,-1.0216,-1.0243,-1.0243,-1.0266,-1.0274,-1.0306,-1.0323,-1.0312,-1.0365,-1.0362,-1.0365,-1.0352,-1.0354,-1.0355,-1.035,-1.0319,0,0,0,0,0,-1.0049,-1.0075,-1.0109,-1.0138,-1.015,-1.0177,-1.0193,-1.0206,-1.0233,-1.0244,-1.0267,-1.0293,-1.032,-1.0338,-1.0365,-1.0399,-1.0407,-1.0412,-1.0413,-1.0414,-1.0416,-1.0434,-1.0436,-1.041,-1.041,-1.041,0,0,-1.0053,-1.0078,-1.0094,-1.0136,-1.0158,-1.0183,-1.0186,-1.0214,-1.0233,-1.0248,-1.0282,-1.0299,-1.033,-1.0363,-1.0379,-1.0379,-1.0425,-1.0415,-1.0416,-1.0418,-1.0435,-1.0438,-1.044,-1.0411,-1.0411,-1.0411,0,0,-1.0073,-1.0096,-1.0121,-1.0142,-1.0174,-1.0191,-1.0196,-1.0231,-1.0243,-1.0276,-1.0288,-1.0311,-1.0358,-1.0378,-1.0395,-1.042,-1.0428,-1.0428,-1.0433,-1.045,-1.0452,-1.0454,-1.0462,-1.0464,-1.043,-1.043,-1.043,0,-1.0074,-1.0114,-1.0134,-1.016,-1.0178,-1.0192,-1.0218,-1.0237,-1.0276,-1.0287,-1.0286,-1.0343,-1.0365,-1.0403,-1.0408,-1.0422,-1.0429,-1.0424,-1.045,-1.0452,-1.0454,-1.0462,-1.0465,-1.043,-1.043,-1.043,-1.043,0,-1.0113,-1.014,-1.0157,-1.0193,-1.0213,-1.0239,-1.0261,-1.0279,-1.0289,-1.0305,-1.0338,-1.0364,-1.0396,-1.0406,-1.0417,-1.0444,-1.0443,-1.0446,-1.0443,-1.0456,-1.0464,-1.0467,-1.043,-1.043,-1.043,-1.043,0,0,-1.013,-1.0174,-1.018,-1.0196,-1.0231,-1.0252,-1.0277,-1.0308,-1.0322,-1.0347,-1.0369,-1.0407,-1.0409,-1.0427,-1.044,-1.0455,-1.0471,-1.0456,-1.0457,-1.0457,-1.0502,-1.05,-1.0503,-1.0476,-1.0477,-1.0478,-1.0499,0,-1.0154,-1.02,-1.0217,-1.0255,-1.028,-1.0292,-1.0315,-1.0338,-1.0354,-1.0376,-1.0393,-1.042,-1.0421,-1.0432,-1.0447,-1.0466,-1.0481,-1.0465,-1.0496,-1.0497,-1.0488,-1.0507,-1.0505,-1.0525,-1.0503,-1.0503,-1.0504,0,-1.0188,-1.0213,-1.0254,-1.0283,-1.0294,-1.0314,-1.0342,-1.0363,-1.0389,-1.04,-1.0419,-1.043,-1.0457,-1.0452,-1.0488,-1.0477,-1.049,-1.0501,-1.0503,-1.0506,-1.0501,-1.0511,-1.0531,-1.0534,-1.0509,-1.0508,-1.0508,0,-1.0195,-1.0239,-1.0268,-1.0281,-1.0317,-1.033,-1.0345,-1.0371,-1.0387,-1.0411,-1.0422,-1.0449,-1.0464,-1.0484,-1.0502,-1.0498,-1.0536,-1.0533,-1.0545,-1.0544,-1.0552,-1.0552,-1.0575,-1.0562,-1.0562,-1.0561,-1.0561,0,-1.022,-1.0244,-1.0271,-1.0289,-1.0315,-1.0334,-1.036,-1.0376,-1.0398,-1.0419,-1.0431,-1.045,-1.0473,-1.0494,-1.0508,-1.0535,-1.0542,-1.0551,-1.0554,-1.0549,-1.0548,-1.0559,-1.0557,-1.0562,-1.0562,-1.0562,-1.0562,0,-1.0232,-1.0252,-1.0284,-1.0314,-1.0322,-1.034,-1.0366,-1.0384,-1.0399,-1.0425,-1.0432,-1.0456,-1.0482,-1.0502,-1.0536,-1.0545,-1.0573,-1.0577,-1.0564,-1.0566,-1.0576,-1.0574,-1.0607,-1.0611,-1.0595,-1.0595,-1.0595,0,-1.0247,-1.0265,-1.0297,-1.0311,-1.0326,-1.035,-1.0366,-1.0385,-1.0401,-1.043,-1.0444,-1.047,-1.0493,-1.0533,-1.0554,-1.0579,-1.0584,-1.0593,-1.0588,-1.0582,-1.0583,-1.0581,-1.0583,-1.0594,-1.0594,-1.0594,-1.0594,0,-1.027,-1.0278,-1.0301,-1.0327,-1.0346,-1.0367,-1.0389,-1.04,-1.0422,-1.0439,-1.0466,-1.0483,-1.0516,-1.0542,-1.0569,-1.0585,-1.0593,-1.0595,-1.0599,-1.0595,-1.0586,-1.059,-1.0566,-1.0595,-1.0595,-1.0595,-1.0595,-1.0595,-1.0283,-1.0299,-1.0324,-1.0348,-1.0366,-1.0385,-1.0403,-1.042,-1.0442,-1.047,-1.048,-1.0506,-1.053,-1.0567,-1.0582,-1.0603,-1.0603,-1.0609,-1.0611,-1.0612,-1.0611,-1.0583,-1.0608,-1.0608,-1.0608,-1.0608,-1.0608,0,-1.0306,-1.0322,-1.0344,-1.0373,-1.0392,-1.0398,-1.0421,-1.0437,-1.046,-1.0481,-1.0502,-1.0531,-1.0556,-1.0577,-1.0603,-1.0615,-1.0619,-1.0621,-1.062,-1.0623,-1.061,-1.0603,-1.0617,-1.0617,-1.0617,-1.0617,-1.0617,-1.0617,-1.032,-1.0347,-1.0358,-1.0393,-1.0409,-1.0435,-1.0448,-1.0465,-1.0482,-1.0514,-1.0534,-1.0548,-1.0569,-1.0595,-1.0618,-1.0623,-1.0632,-1.0633,-1.0639,-1.0626,-1.0625,-1.0624,-1.0618,-1.0634,-1.0634,-1.0651,-1.0651,-1.0651]}]]